Location: Newark
(54.3833°N, 10.0000°E)
Time: 19:26:50
(UTC+00:00)

N. Korean satellite - Visible Passes

Search period start: 05 December 2019 00:00
Search period end: 15 December 2019 00:00
Orbit: 456 x 506 km, 97.2° (Epoch: 05 December)

Date Brightness Start Highest point End Pass type
(mag) Time Alt. Az. Time Alt. Az. Time Alt. Az.
05 Dec 10.1 04:02:01 10° ENE 04:03:15 11° E 04:04:28 10° ESE visible
05 Dec 6.4 05:33:34 10° NNE 05:37:12 83° WNW 05:40:46 10° SSW visible
05 Dec 6.8 16:15:02 10° S 16:18:45 78° WSW 16:22:30 10° NNW visible
06 Dec 7.4 05:08:11 10° NNE 05:11:45 52° E 05:15:12 10° S visible
06 Dec 8.0 06:42:15 10° NNW 06:44:49 19° WNW 06:47:21 10° WSW visible
06 Dec 6.7 15:49:41 10° SSE 15:53:21 57° ENE 15:57:01 10° N visible
06 Dec 9.8 17:24:37 10° SW 17:27:05 17° W 17:29:33 10° NW visible
07 Dec 8.7 04:43:00 10° NNE 04:46:11 28° E 04:49:17 10° SSE visible
07 Dec 7.3 06:16:23 10° N 06:19:35 30° WNW 06:22:43 10° SW visible
07 Dec 8.9 16:58:11 10° SSW 17:01:27 28° W 17:04:42 10° NNW visible
08 Dec 9.6 04:18:10 10° NE 04:20:31 16° E 04:22:51 10° SE visible
08 Dec 6.6 05:50:44 10° N 05:54:16 53° WNW 05:57:42 10° SSW visible
08 Dec 7.6 16:32:15 10° S 16:35:53 51° W 16:39:31 10° NNW visible
09 Dec 6.6 05:25:14 10° NNE 05:28:51 81° ESE 05:32:22 10° SSW visible
09 Dec 6.6 16:06:42 10° SSE 16:10:25 87° ENE 16:14:07 10° NNW visible
09 Dec 10.1 17:43:03 10° WSW 17:44:22 11° W 17:45:40 10° WNW visible
10 Dec 7.8 04:59:54 10° NNE 05:03:21 42° E 05:06:42 10° S visible
10 Dec 7.8 06:33:45 10° NNW 06:36:31 21° WNW 06:39:15 10° WSW visible
10 Dec 6.9 15:41:27 10° SE 15:45:01 47° ENE 15:48:36 10° N visible
10 Dec 9.5 17:15:53 10° SW 17:18:39 20° W 17:21:25 10° NW visible
11 Dec 9.0 04:34:48 10° NE 04:37:44 23° E 04:40:38 10° SSE visible
11 Dec 7.1 06:07:57 10° N 06:11:15 35° WNW 06:14:29 10° SW visible
11 Dec 8.5 16:49:38 10° SSW 16:53:02 34° W 16:56:26 10° NNW visible
12 Dec 9.8 04:10:12 10° NE 04:12:03 14° E 04:13:53 10° ESE visible
12 Dec 6.4 05:42:21 10° N 05:45:53 65° WNW 05:49:21 10° SSW visible
12 Dec 7.2 16:23:50 10° S 16:27:30 62° WSW 16:31:10 10° NNW visible
13 Dec 6.9 05:16:54 10° NNE 05:20:26 66° ESE 05:23:54 10° S visible
13 Dec 6.5 15:58:22 10° SSE 16:02:03 72° ENE 16:05:43 10° N visible
13 Dec 9.9 17:33:58 10° WSW 17:35:54 14° W 17:37:49 10° NW visible
14 Dec 8.2 04:51:37 10° NNE 04:54:54 34° E 04:58:07 10° SSE visible
14 Dec 7.6 06:25:15 10° N 06:28:11 25° WNW 06:31:04 10° WSW visible
14 Dec 7.1 15:33:13 10° SE 15:36:41 39° ENE 15:40:07 10° N visible
14 Dec 9.2 17:07:13 10° SSW 17:10:12 23° W 17:13:11 10° NW visible
